Regional Weather Roundup
Issued by NWS Little Rock, AR

Home | Current Version | Previous Version | Text Only | Print | Product List | Glossary On
Versions: 1 2 3 4 5 6 7 8 9 10 11 12 13 14 15 16 17 18 19 20 21 22 23 24 25 26 27
000
ASUS44 KLZK 310005
RWRLZK

WEATHER ROUNDUP FOR ARKANSAS
NATIONAL WEATHER SERVICE LITTLE ROCK AR
700 PM CDT MON MAY 30 2016

NOTE: "FAIR" INDICATES FEW OR NO CLOUDS BELOW 12,000 FEET WITH NO
SIGNIFICANT WEATHER AND/OR OBSTRUCTIONS TO VISIBILITY.

ARZ001-003-010-029-310100-
NORTHWEST ARKANSAS

CITY           SKY/WX    TMP DP  RH WIND       PRES   REMARKS
FAYETTEVILLE   CLOUDY    67  67 100 CALM      29.99F
6HR MIN TEMP:  65; 6HR MAX TEMP:  68; 6HR PCP:  0.13;

FORT SMITH     CLOUDY    73  65  75 E9        29.94F
6HR MIN TEMP:  71; 6HR MAX TEMP:  76; 6HR PCP: TRACE;

HARRISON       LGT RAIN  68  66  93 N8        30.02F
6HR MIN TEMP:  68; 6HR MAX TEMP:  72; 6HR PCP:  0.03;

BENTONVILLE    CLOUDY    68  63  83 E7        30.01F
6HR MIN TEMP:  68; 6HR MAX TEMP:  72; 6HR PCP:  0.08;

ROGERS         LGT RAIN  67  65  93 E9        30.02S
6HR MIN TEMP:  67; 6HR MAX TEMP:  70; 6HR PCP:  0.10;

SILOAM SPGS    CLOUDY    66  59  77 E5        30.00F
6HR MIN TEMP:  66; 6HR MAX TEMP:  70; 6HR PCP:  0.05;

HIGHFILL       LGT RAIN  68  66  93 NE7       30.00F
6HR MIN TEMP:  68; 6HR MAX TEMP:  71; 6HR PCP:  0.05;

SPRINGDALE     MOSUNNY   68  66  94 CALM      30.02F
$$

ARZ004-005-016-310100-
NORTH CENTRAL ARKANSAS

CITY           SKY/WX    TMP DP  RH WIND       PRES   REMARKS
BATESVILLE     CLOUDY    72  64  78 SE3       30.00S
6HR MIN TEMP:  68; 6HR MAX TEMP:  86; 6HR PCP:  0.39;

FLIPPIN        CLOUDY   N/A N/A N/A CALM      30.00R
MTN HOME       LGT RAIN  69  64  84 CALM      30.03R
6HR MIN TEMP:  67; 6HR MAX TEMP:  80; 6HR PCP:  0.03;

$$

ARZ040-041-310100-
WEST CENTRAL ARKANSAS

CITY           SKY/WX    TMP DP  RH WIND       PRES   REMARKS
MENA           CLOUDY    77  72  83 NE5       29.96F
MOUNT IDA      CLOUDY    72  68  87 CALM      29.94F
6HR MIN TEMP:  67; 6HR MAX TEMP:  79; 6HR PCP:  0.62;

$$

ARZ009-017-025-026-028-310100-
NORTHEAST ARKANSAS

CITY           SKY/WX    TMP DP  RH WIND       PRES   REMARKS
CORNING        LGT RAIN  81  72  74 NW5       29.98S
JONESBORO        N/A     81  67  62 NW6       29.97R
6HR MIN TEMP:  81; 6HR MAX TEMP:  88;

NEWPORT        LGT RAIN  72  70  93 NE6       29.99F
6HR MIN TEMP:  69; 6HR MAX TEMP:  88; 6HR PCP:  0.68;

WALNUT RIDGE   PTSUNNY   75  66  73 W8        29.99R
6HR MIN TEMP:  75; 6HR MAX TEMP:  86;

BLYTHEVILLE    MOSUNNY   88  58  36 CALM      29.96S HX  87
6HR MIN TEMP:  85; 6HR MAX TEMP:  89;

$$

ARZ022-023-033-042-044-310100-
CENTRAL ARKANSAS

CITY           SKY/WX    TMP DP  RH WIND       PRES   REMARKS
LITTLE ROCK    TSTM      73  65  75 S15       30.00R
6HR MIN TEMP:  73; 6HR MAX TEMP:  87; 6HR PCP:  0.09;

N LITTLE ROCK    N/A     73  70  89 N5        29.97R
6HR MIN TEMP:  73; 6HR MAX TEMP:  84;

JACKSONVILLE   LGT RAIN  75  72  92 S5        29.97R
6HR MIN TEMP:  74; 6HR MAX TEMP:  86; 6HR PCP:  0.21;

SEARCY         CLOUDY    79  70  73 NE13      29.98R
6HR MIN TEMP:  79; 6HR MAX TEMP:  88;

HOT SPRINGS    HVY RAIN  68  66  93 E5        30.00R VSB 1/2
6HR MIN TEMP:  68; 6HR MAX TEMP:  84; 6HR PCP:  0.42;

RUSSELLVILLE   CLOUDY    78  68  71 CALM      29.95F
6HR MIN TEMP:  71; 6HR MAX TEMP:  78; 6HR PCP:  0.04;

CLINTON        LGT RAIN  75  73  94 CALM      29.98S
$$

ARZ036-310100-
EAST ARKANSAS

CITY           SKY/WX    TMP DP  RH WIND       PRES   REMARKS
WEST MEMPHIS   MOSUNNY   84  63  49 NE6       29.94S HX  85
6HR MIN TEMP:  84; 6HR MAX TEMP:  89;

$$

ARZ050-053-066-070-073-310100-
SOUTHWEST ARKANSAS

CITY           SKY/WX    TMP DP  RH WIND       PRES   REMARKS
ARKADELPHIA    FAIR      72  68  87 N7        29.96S
6HR MIN TEMP:  70; 6HR MAX TEMP:  86; 6HR PCP:  0.04;

CAMDEN         CLOUDY    72  66  83 N5        29.94S
TEXARKANA      CLOUDY    76  68  76 E5        29.92F
6HR MIN TEMP:  76; 6HR MAX TEMP:  82;

EL DORADO      CLOUDY    74  70  87 CALM      29.94F
6HR MIN TEMP:  67; 6HR MAX TEMP:  87; 6HR PCP:  0.73;

DE QUEEN       SUNNY     81  70  69 SE6       29.90F
6HR MIN TEMP:  76; 6HR MAX TEMP:  83;

$$

ARZ056-057-069-310100-
SOUTHEAST ARKANSAS

CITY           SKY/WX    TMP DP  RH WIND       PRES   REMARKS
STUTTGART      CLOUDY    84  63  48 E5        29.96R HX  85
6HR MIN TEMP:  84; 6HR MAX TEMP:  88;

MONTICELLO     CLOUDY    77  66  68 W6        29.93F
6HR MIN TEMP:  77; 6HR MAX TEMP:  90;


$$






USA.gov is the U.S. government's official web portal to all federal, state and local government web resources and services.